Home > Time Zones > World Clock > Weather > India > Pali > Past weeks

Flag for India Weather past 2 weeks in Pali, Rajasthan, India

Now
88 °F

Haze.


Feels Like: 94 °F
Forecast: 74 / 93 °F
Wind: 12 mph from Northwest

Location: Jaipur / Sanganer

Current Time: Sep 19, 2014 at 11:49:08 AM

Latest Report: Sep 19, 2014 at 11:00 AM


Visibility: 2 mi

Pressure: 29.83 "Hg

Humidity: 59%

Dew point: 72 °F

Location of PaliLocation

Historic Weather in Pali — Graph

°F

Pali temperature yesterday

Maximum temperature yesterday: 93 °F (at 2:00 PM)
Minimum temperature yesterday: 79 °F (at 2:00 AM)
Average temperature yesterday: 85 °F

Past Weeks' High & Low Weather Summary

 TemperatureHumidityPressure
High93 °F (Sep 10, 1:00 PM)100% (Sep 5, 12:00 AM)29.83 "Hg (Sep 5, 12:00 AM)
Low72 °F (Sep 19, 3:00 AM)47% (Sep 18, 2:00 PM)29.53 "Hg (Sep 4, 3:00 PM)
Average83 °F76%29.71 "Hg
* Reported Sep 4 10:00 AM — Sep 19 10:00 AM, Pali, Weather by CustomWeather, © 2014

Note: Actual official high and low records may vary slightly from our data, if they occured in-between our weather recording intervals... More about our weather records

Advertising

Pali weather history for previous 24 hours

 ConditionsComfort  
Time TempWeatherWind HumidityBarometerVisibility
10:00 AM
Sep 19
86 °FHaze.12 mph59%29.83 "Hg2 mi
9:30 AM84 °FHaze.13 mph62%29.83 "Hg2 mi
9:00 AM82 °FHaze.10 mph66%29.83 "Hg2 mi
8:30 AM81 °FHaze.13 mph70%29.83 "Hg2 mi
8:00 AM81 °FHaze.9 mph70%29.83 "Hg2 mi
7:00 AM79 °FHaze.8 mph74%29.80 "Hg2 mi
6:00 AM79 °FHaze.7 mph74%29.80 "Hg2 mi
5:00 AM79 °FHaze.7 mph74%29.77 "Hg2 mi
4:00 AM79 °FHaze.7 mph74%29.77 "Hg2 mi
3:00 AM72 °FHaze.5 mph100%29.77 "Hg2 mi
1:00 AM79 °FHaze.2 mph74%29.80 "Hg2 mi
12:00 AM81 °FHaze.2 mph70%29.80 "Hg2 mi
11:00 PM
Sep 18
82 °FHaze.6 mph66%29.80 "Hg2 mi
10:00 PM82 °FHaze.5 mph66%29.80 "Hg2 mi
9:00 PM84 °FHaze.6 mph62%29.77 "Hg2 mi
8:00 PM86 °FHaze.6 mph59%29.74 "Hg2 mi
7:00 PM88 °FHaze.7 mph55%29.74 "Hg2 mi
6:00 PM90 °FHaze.8 mph52%29.71 "Hg2 mi
5:00 PM91 °FHaze.9 mph49%29.71 "Hg2 mi
4:00 PM91 °FHaze.10 mph49%29.71 "Hg2 mi
3:00 PM91 °FHot.N/A49%29.71 "HgN/A
2:00 PM93 °FHaze.9 mph47%29.74 "Hg2 mi
1:00 PM91 °FHaze.10 mph49%29.77 "Hg2 mi
12:00 PM90 °FHaze.12 mph55%29.77 "Hg2 mi
11:00 AM88 °FHaze.10 mph62%29.80 "Hg2 mi
Weather by CustomWeather, © 2014

See weather overviewHow to use our weather pages